User: anonymous   Login
Location: South Tamworth Observatory
(43.8246°N, 71.3026°W)
Time: 23:09:42
(UTC-04:00)
Language:

Cosmos 2208 Rocket - Orbit

View from above orbital plane
View from above orbital plane
View from above satellite
View from above satellite

Ground track
Ground track

The orbit data is extracted from the following two-line orbital elements,

1 22081U 92053B   15090.54265750  .00000267  00000-0  10579-3 0  9991
2 22081 074.0426 114.7884 0037396 281.8034 077.8923 14.33209198182989
Epoch (UTC): 31 March 2015 13:01:25
Eccentricity: 0.0037396
inclination: 74.0426°
perigee height: 754 km
apogee height: 808 km
right ascension of ascending node: 114.7884°
argument of perigee: 281.8034°
revolutions per day: 14.33209198
mean anomaly at epoch: 77.8923°
orbit number at epoch: 18298

The dashed part of the orbit path shows where the satellite is in the earth's shadow,  

DLR